Regional Weather Roundup
Issued by NWS

Home | Current Version | Previous Version | Text Only | Print | Product List | Glossary Off
Versions: 1 2 3 4 5 6 7 8 9 10 11 12 13 14 15 16 17 18 19 20 21 22 23 24 25 26 27 28 29 30 31 32 33 34 35 36 37 38 39 40 41 42 43 44 45 46 47 48 49 50

000
ASUS45 KSLC 210710
RWRUT

UTAH REGIONAL WEATHER ROUNDUP
NATIONAL WEATHER SERVICE SALT LAKE CITY UT
1200 AM MST SUN DEC 21 2014

UTZ001>011-023>025-210800-

NORTHERN UTAH

CITY           SKY/WX    TMP DP  RH WIND       PRES   REMARKS
BRIGHAM CITY   CLOUDY    41  35  77 CALM      30.03S
HILL AFB       CLOUDY    38  36  91 S10       30.02F WCI  32
LOGAN          CLOUDY    41  34  76 S9        29.99F
OGDEN          CLOUDY    39  35  86 S8        30.01F WCI  33
PROVO AIRPORT  CLOUDY    36  34  93 CALM      30.09R
SALT LAKE CITY CLOUDY    41  34  76 SE9       30.03F
VERNAL         CLOUDY    30  27  88 CALM      30.08R
WENDOVER       CLOUDY    34  27  75 CALM      30.04S
HEBER CITY     CLOUDY    32  32 100 CALM      30.05R
WEST JORDAN    CLOUDY    39  37  93 S13       30.05S WCI  32

$$

UTZ012>022-026-027-210800-

SOUTHERN/CENTRAL UTAH

CITY           SKY/WX    TMP DP  RH WIND       PRES   REMARKS
BLANDING       CLOUDY    32  31  96 CALM      30.18F
BRYCE CANYON   PTCLDY    23  19  85 W5        30.11F WCI  17
CEDAR CITY     CLEAR     30  25  81 S8        30.11F WCI  22
DELTA          MOCLDY    32  30  94 S10       30.08F WCI  23
MILFORD        CLEAR     34  28  79 SW13      30.11R WCI  25
MOAB/CYNLANDS  CLOUDY    35  33  92 CALM      30.11F
PRICE          CLOUDY    30  27  88 CALM      30.09F
ST GEORGE      CLOUDY    39  30  70 S3        30.17F

$$

REGIONAL REPORTS     COLORADO/ARIZONA

CITY           SKY/WX    TMP DP  RH WIND       PRES   REMARKS
CRAIG, CO      MOCLDY    21  20  96 SE3       30.04F FOG
GRAND JUNCTION CLOUDY    33  31  92 CALM      30.12F
RIFLE          CLOUDY    30  28  92 SE3       30.11S
MONTROSE       CLOUDY    32  28  85 CALM      30.13F
CORTEZ         CLOUDY    32  29  88 NE5       30.11F WCI  27
PAGE, AZ       MOCLDY    37  29  72 CALM      30.14F
GRAND CANYON   MOCLDY    26  24  92 CALM      30.17S
KINGMAN        PTCLDY    35  31  85 CALM      30.17R
FLAGSTAFF      CLOUDY    28  22  78 CALM      30.16F

$$

REGIONAL REPORTS    NEVADA/IDAHO/WYOMING

CITY           SKY/WX    TMP DP  RH WIND       PRES   REMARKS
LAS VEGAS, NV  PTCLDY    47  37  68 SW3       30.13R
ELY            LGT RAIN  34  31  88 N3        30.16S
ELKO           MIX PCPN  37  34  89 SW10      30.09S WCI  30
POCATELLO, ID  LGT RAIN  37  36  96 SW10      29.94F WCI  30
BURLEY         LGT RAIN  40  36  86 SW13      29.94F WCI  32
EVANSTON, WY   FLURRIES  31  28  89 SW20      29.98F WCI  19
ROCK SPRINGS   CLOUDY    31  27  85 SW17      29.97S WCI  19
KEMMERER       LGT SNOW  30  30 100 W21G28    29.94F WCI  17

$$


USA.gov is the U.S. government's official web portal to all federal, state and local government web resources and services.